ASTRO-H (HITOMI)

Last updated on Thu Oct 30 2025 00:02:16 GMT+0000 (Coordinated Universal Time)

1 41337U 16012A 25301.84708528 .00004415 00000+0 26694-3 0 9994 2 41337 30.9981 126.6893 0009880 86.1429 274.0338 15.08944008532297
UTC large
Height (km)
Speed (km/s)
/
Latitude / Longitude
Inclination (degrees)
Orbital Period (minutes)
Azimuth
Elevation
Range (km)
Doppler Factor

Next 0 passes for location: London (51.5072 / 0.1276)

Sorry there are no passes over London.